Tracking 28799 objects as of 18-Apr-2024
HD Live streaming from Space Station
objects crossing your sky now

FENGYUN 1C DEB

Track FENGYUN 1C DEB now!
10-day predictions


NORAD ID: 30936
Int'l Code: 1999-025BAA
Perigee: 795.2 km
Apogee: 863.7 km
Inclination: 98.6 °
Period: 101.3 minutes
Semi major axis: 7200 km
RCS: 0.0141 m2 (small)
Launch date: May 10, 1999
Source: People's Republic of China (PRC)
Launch site: Taiyaun Space Center, China (TSC)

Note: This is SATELLITE DEBRIS
Your satellite tracking list
Your tracking list is empty




NASA's NSSDC Master Catalog

Two Line Element Set (TLE):
1 30936U 99025BAA 24108.04906512  .00002205  00000-0  10270-2 0  9999
2 30936  98.6438 146.6058 0047543 243.0657 146.6432 14.20905549885377
Source of the keplerian elements: AFSPC